TeikyoSat 4
1 49396U 21102B   25306.33812273  .00002085  00000-0  13792-3 0  9992
2 49396  97.3959 339.4505 0012271   1.9268 358.2006 15.08361582218513
Z-Sat
1 49399U 21102E   25306.51807818  .00005385  00000-0  28393-3 0  9993
2 49399  97.3647 343.6744 0016349 322.1058  37.9024 15.15864170219079
KOSEN 1
1 49402U 21102H   25306.36560469  .00008057  00000-0  34829-3 0  9999
2 49402  97.3539 348.1105 0013277 290.3663  69.6147 15.22649687219452
HO-113
1 50466U 21131B   25306.44843375  .00000764  00000-0  25130-3 0  9994
2 50466  98.5070  35.0725 0005077  67.5468 292.6258 14.41025747202451
SNUGLITE 2
1 52899U 22065F   25306.33406332  .00001601  00000-0  31702-3 0  9992
2 52899  98.1899  87.1078 0007849  24.4521 335.7052 14.63659570177800
UmKA 1 (RS40S)
1 57172U 23091G   25306.46010031  .00007145  00000-0  36050-3 0  9992
2 57172  97.5408   1.1100 0013713 182.9672 177.1482 15.17352022129583
CubeBel-2 (EU11S)
1 57175U 23091K   25306.45352692  .00012446  00000-0  53753-3 0  9995
2 57175  97.5407   3.2506 0011176 186.0807 174.0295 15.22588014129726
ENSO
1 58470U 23185J   25305.67353662  .00814819  32711-3  13838-2 0  9999
2 58470  97.3445  28.0363 0007748 264.7060  95.3336 16.02640667107770
SONATE-2
1 59112U 24043Q   25306.33108779  .00025202  00000-0  58808-3 0  9998
2 59112  97.5310  81.1720 0009067 313.7781  46.2715 15.42166567 92746
MO-122
1 60209U 24125G   25306.10286776  .00027924  00000-0  63302-3 0  9995
2 60209  97.2585 156.5336 0015541 339.1883  20.8730 15.42924466 74335
GRBBeta
1 60237U 24128C   25306.34111896  .00004722  00000-0  34184-3 0  9992
2 60237  61.9902 290.8186 0057133  87.9831 272.7802 15.04154082 72115
Curium One
1 60242U 24128H   25306.35717186  .00009270  00000-0  59422-3 0  9998
2 60242  61.9796 286.5446 0056876  84.6322 276.1257 15.07790119 72195
ROBUSTA-3A
1 60243U 24128J   25306.21145812  .00008980  00000-0  58575-3 0  9990
2 60243  61.9869 288.4202 0056738  82.0252 278.7274 15.07188461 72153
CatSat
1 60246U 24125J   25306.15681917  .00030257  00000-0  82508-3 0  9999
2 60246  97.2390 154.0729 0035156 295.4919  64.2690 15.36767788 72281
HYPERVIEW-1G (RS66S)
1 61772U 24199AP  25306.54098836  .00038353  00000-0  84730-3 0  9994
2 61772  97.3270 175.5871 0012903  35.4452 324.7651 15.43670083 99402
AO-123
1 61781U 24199AY  25306.55193383  .00010100  00000-0  34024-3 0  9999
2 61781  97.3300 172.4651 0016503  44.3170 315.9389 15.30813960 99199
ZIMSAT 2
1 61783U 24199BA  25306.57913503  .00106562  00000-0  13785-2 0  9995
2 61783  97.3191 178.0160 0010631  34.0472 326.1464 15.58498409102722
HADES-R (SO-124)
1 62690U 25009CK  25306.21291986  .00092552  00000-0  18672-2 0  9992
2 62690  97.3963  27.6786 0002949 270.6008  89.4904 15.46188727 44499
HYDRA-T
1 62692U 25009CM  25306.15790590  .00098016  00000-0  19230-2 0  9994
2 62692  97.3954  27.7512 0002888 265.6099  94.4821 15.46980836 44490
JINJUSat 1B
1 63210U 25052A   25306.45204443  .00016728  00000-0  67545-3 0  9992
2 63210  97.4223 198.9107 0004631 136.1344 224.0262 15.24837511 35443
NUSHSAT 1
1 63211U 25052B   25306.20894411  .00017855  00000-0  70452-3 0  9999
2 63211  97.4200 198.7442 0004352 141.0579 219.0973 15.25596252 35419
TEVEL2-4
1 63213U 25052D   25306.45626275  .00018228  00000-0  73066-3 0  9998
2 63213  97.4124 198.6214 0003009 146.1844 213.9586 15.25068015 35448
TEVEL2-5
1 63214U 25052E   25306.46003655  .00018325  00000-0  73572-3 0  9991
2 63214  97.4121 198.6170 0003030 146.3494 213.7937 15.25014130 35441
TEVEL2-6
1 63215U 25052F   25306.20361624  .00016964  00000-0  68253-3 0  9994
2 63215  97.4123 198.3530 0003011 148.3855 211.7564 15.24958298 35404
TEVEL2-1
1 63217U 25052H   25306.23815979  .00016532  00000-0  67103-3 0  9990
2 63217  97.4101 198.2311 0002511 160.2142 199.9194 15.24670877 35404
TEVEL2-3
1 63218U 25052J   25306.43473152  .00017137  00000-0  69498-3 0  9997
2 63218  97.4103 198.4291 0002528 160.0431 200.0906 15.24692277 35439
TEVEL2-2
1 63219U 25052K   25306.23894251  .00016728  00000-0  67895-3 0  9997
2 63219  97.4103 198.2319 0002501 160.8603 199.2729 15.24670134 35406
TEVEL2-9
1 63237U 25052AD  25306.22927737  .00015567  00000-0  65847-3 0  9997
2 63237  97.4159 197.9831 0005513 210.7223 149.3692 15.23279605 35379
TEVEL2-7
1 63238U 25052AE  25306.43667008  .00015673  00000-0  66522-3 0  9992
2 63238  97.4164 198.1697 0005584 210.7815 149.3095 15.23163398 35406
TEVEL2-8
1 63239U 25052AF  25306.44159470  .00016043  00000-0  68138-3 0  9990
2 63239  97.4168 198.1611 0005594 210.9048 149.1861 15.23135099 35404
HYDRA-W
1 63490U 25052BL  25306.23148985  .00054650  00000-0  16155-2 0  9992
2 63490  97.4095 199.6379 0006581 194.5724 165.5331 15.34722692 35490
HADES-ICM (SO-125)
1 63492U 25052BN  25306.44552296  .00048478  00000-0  14921-2 0  9991
2 63492  97.4113 199.6762 0006939 202.4828 157.6112 15.33472059 35510
Dragonfly
1 65729U 98067XH  25306.39139799  .00091400  00000-0  11100-2 0  9994
2 65729  51.6314 340.3627 0003530  67.4821 292.6545 15.59817489  6843
RSP-03
1 65732U 98067XL  25305.82743346  .00078013  00000-0  99143-3 0  9993
2 65732  51.6320 343.3470 0005763  44.1597 315.9855 15.58678481  6765
GHS-01
1 65733U 98067XM  25306.38275618  .00103401  00000-0  12194-2 0  9998
2 65733  51.6324 340.3060 0004009  64.4397 295.7010 15.60529617  6854
BOTAN
1 65942U 98067XP  25305.54523315  .00066684  00000-0  10070-2 0  9999
2 65942  51.6331 345.9591 0004626   5.6465 354.4577 15.54095782  3449
